Tracking 31011 objects as of 12-Jul-2025
HD Live streaming from Space Station
objects crossing your sky now

STARLINK-32346

Track STARLINK-32346 now!
10-day predictions
STARLINK-32346 is classified as:


NORAD ID: 61849
Int'l Code: 2024-202E
Perigee: 489.5 km
Apogee: 490.9 km
Inclination: 43.0 °
Period: 94.3 minutes
Semi major axis: 6861 km
RCS: Unknown
Launch date: November 7, 2024
Source: United States (US)
Launch site: AIR FORCE EASTERN TEST RANGE (AFETR)
Your satellite tracking list
Your tracking list is empty




NASA's NSSDC Master Catalog

Two Line Element Set (TLE):
1 61849U 24202E   25192.86043757  .00000762  00000-0  37214-4 0  9993
2 61849  43.0030 147.0230 0000957 270.6471  89.4271 15.27574213 39117
Source of the keplerian elements: AFSPC